Miscellaneous Local Product
Issued by NWS North Platte, NE

Home | Current Version | Previous Version | Text Only | Print | Product List | Glossary On
Versions: 1 2 3 4 5 6 7 8 9 10 11 12 13 14 15 16 17 18 19 20 21 22 23 24 25 26 27 28 29 30 31 32 33 34 35 36 37 38 39 40 41 42 43 44 45 46 47 48 49 50
813
AXUS43 KLBF 230310
MISLBF


WESTERN AND NORTH CENTRAL NEBRASKA HOURLY WEATHER ROUNDUP
NATIONAL WEATHER SERVICE NORTH PLATTE NE
1000 PM CDT FRI JUL 22 2016

NOTE: "FAIR" INDICATES FEW OR NO CLOUDS BELOW 12,000 FEET WITH NO
SIGNIFICANT WEATHER AND/OR OBSTRUCTIONS TO VISIBILITY.

NOTE: STATIONS NOT REPORTING VARIABLES SUCH AS SKY/WEATHER OR
PRESSURE ARE PROVIDED BY RAWS AND APRS NETWORKS AND ARE NOT UNDER
NATIONAL WEATHER SERVICE QUALITY CONTROL.

...OBSERVATIONS IN AND NEAR THE EASTERN PANHANDLE OF NEBRASKA...

CITY           SKY/WX    TMP DP  RH WIND       PRES   REMARKS
PINE RIDGE     CLOUDY    82  53  36 SE21G29   29.93F
CHADRON        CLOUDY    79  54  41 S14       29.92F
ALLIANCE       CLOUDY    68  64  87 S9        30.00F
SIDNEY         CLOUDY    67  61  81 E22G35    30.08R
CRESCENT LAKE    N/A     69  61  77 SE10G20     N/A
$$

...OBSERVATIONS IN NORTHERN NEBRASKA AND FAR SOUTHERN SOUTH DAKOTA...

CITY           SKY/WX    TMP DP  RH WIND       PRES   REMARKS
WINNER         FAIR      87  76  69 SE12      29.93R HX  97
VALENTINE      CLOUDY    86  73  65 E15       29.94F HX  93
THEDFORD       CLOUDY    85  75  72 CALM      30.00S HX  92
AINSWORTH      CLOUDY    83  77  82 E10       29.98R HX  92
O`NEILL        CLOUDY    84  76  76 E8        29.94F HX  93
ORD            CLOUDY    83  78  85 CALM      29.92S HX  93
BROKEN BOW     CLOUDY    79  75  87 CALM      29.95R
VALENTINE NWR    N/A     84  72  67 SE3         N/A
BUTTE            N/A     84  79  85 E10         N/A  HX  95
HALSEY           N/A     84  73  69 CALM        N/A  HX  90
EWING            N/A     80  78  93 E3          N/A
$$

...OBSERVATIONS IN SOUTHWEST NEBRASKA AND FAR NORTHEAST COLORADO...

CITY           SKY/WX    TMP DP  RH WIND       PRES   REMARKS
WRAY           FAIR      81  68  65 E9        29.95
HOLYOKE        CLOUDY    75  64  69 W21G29    30.05R THUNDER
IMPERIAL       CLOUDY    81  67  62 E14       29.94F
OGALLALA       TSTM      70  64  81 N32G44    30.03R
NORTH PLATTE   CLOUDY    79  73  82 CALM      29.96R
MCCOOK         CLOUDY    82  72  71 E8        29.91S
LEXINGTON      CLOUDY    79  75  86 CALM      29.93S
STAPLETON        N/A     81  75  81 CALM        N/A
GOTHENBURG       N/A     82  70  68 CALM        N/A
CALLAWAY         N/A     78  74  89 S3          N/A
$$

...OBSERVATIONS IN CENTRAL LINCOLN COUNTY AREA...

CITY           SKY/WX    TMP DP  RH WIND       PRES   REMARKS
N.P. AIRPORT   CLOUDY    79  73  82 CALM      29.96R
N.P. DOWNTOWN    N/A     84  69  61 CALM        N/A
N.P. SOUTHEAST   N/A     83  70  64 CALM        N/A
N.P. HILLCREST   N/A     81  70  69 E7          N/A
$$

...SOME OBSERVATIONS FROM AROUND THE REGION...

CITY           SKY/WX    TMP DP  RH WIND       PRES   REMARKS
DENVER         CLOUDY    83  50  31 W14       30.10F
LARAMIE        CLOUDY    75  46  35 S15G21    30.25R
CHEYENNE       CLOUDY    79  48  33 SW12      30.14S
SCOTTSBLUFF    CLOUDY    72  60  66 SE15      30.02R
RAPID CITY     CLEAR     77  59  53 S14       29.93R
BISMARCK       LGT RAIN  70  68  93 S12       30.06R
PIERRE         CLOUDY    84  72  67 SE17      29.91R
SIOUX FALLS    MOCLDY    84  78  82 SE10      29.92S HX  95
OMAHA          PTCLDY    87  80  79 SE12      29.90R HX 103
GRAND ISLAND   PTCLDY    81  72  74 SE3       29.92R
KANSAS CITY    PTCLDY    86  75  69 SE12      29.95R HX  95
WICHITA        PTCLDY    90  69  50 SE12      29.93R HX  94
OKLAHOMA CITY  PTCLDY    82  68  62 S9        29.98R
DALLAS         PTCLDY    90  66  45 S7        29.96R HX  92
AMARILLO       CLEAR     85  53  33 S14       30.08R
DODGE CITY     CLEAR     82  62  50 SE10      29.97R HAZE
HAYS           MOCLDY    90  61  37 S14       29.89F
GOODLAND       CLEAR     84  56  38 S13       29.95F
$$




USA.gov is the U.S. government's official web portal to all federal, state and local government web resources and services.